Time,TemperatureF,DewpointF,PressureIn,WindDirection,WindDirectionDegrees,WindSpeedMPH,WindSpeedGustMPH,Humidity,HourlyPrecipIn,Conditions,Clouds,dailyrainin,SoftwareType,DateUTC
2013-01-14 00:04:00,50.4,38.7,29.99,East,90,4.2,-999.0,64,-99.99,,,0.00,Acu-Link.com,2013-01-14 06:04:00,
2013-01-14 00:19:00,50.2,38.9,29.99,North,0,4.2,-999.0,65,-99.99,,,0.00,Acu-Link.com,2013-01-14 06:19:00,
2013-01-14 00:34:00,50.2,39.3,29.98,NE,45,4.7,-999.0,66,-99.99,,,0.00,Acu-Link.com,2013-01-14 06:34:00,
2013-01-14 00:50:00,50.4,39.9,29.98,NNE,22,4.2,-999.0,67,-99.99,,,0.00,Acu-Link.com,2013-01-14 06:50:00,
2013-01-14 01:05:00,50.4,39.9,29.99,NNE,22,2.7,-999.0,67,-99.99,,,0.00,Acu-Link.com,2013-01-14 07:05:00,
2013-01-14 01:20:00,50.4,40.2,29.98,NE,45,5.8,-999.0,68,-99.99,,,0.00,Acu-Link.com,2013-01-14 07:20:00,
2013-01-14 01:35:00,50.2,40.1,29.98,East,90,3.7,-999.0,68,-99.99,,,0.00,Acu-Link.com,2013-01-14 07:35:00,
2013-01-14 01:50:00,50.2,40.4,29.99,NW,315,3.7,-999.0,69,-99.99,,,0.00,Acu-Link.com,2013-01-14 07:50:00,
2013-01-14 02:05:00,50.0,40.2,30.00,West,270,4.7,-999.0,69,-99.99,,,0.00,Acu-Link.com,2013-01-14 08:05:00,
2013-01-14 02:20:00,49.8,40.0,29.99,NNW,337,4.2,-999.0,69,-99.99,,,0.00,Acu-Link.com,2013-01-14 08:20:00,
2013-01-14 02:35:00,49.5,39.8,30.00,NNW,337,5.3,-999.0,69,-99.99,,,0.00,Acu-Link.com,2013-01-14 08:35:00,
2013-01-14 02:50:00,49.3,39.6,30.01,NNE,22,4.7,-999.0,69,-99.99,,,0.00,Acu-Link.com,2013-01-14 08:50:00,
2013-01-14 03:12:00,49.1,39.0,30.01,WNW,292,6.3,-999.0,68,-99.99,,,0.00,Acu-Link.com,2013-01-14 09:12:00,
2013-01-14 03:28:00,48.7,38.2,30.01,NNW,337,7.3,-999.0,67,-99.99,,,0.00,Acu-Link.com,2013-01-14 09:28:00,
2013-01-14 03:43:00,48.4,38.0,29.99,NE,45,5.3,-999.0,67,-99.99,,,0.00,Acu-Link.com,2013-01-14 09:43:00,
2013-01-14 03:58:00,48.0,38.0,30.00,NW,315,5.8,-999.0,68,-99.99,,,0.00,Acu-Link.com,2013-01-14 09:58:00,
2013-01-14 04:13:00,47.8,37.8,30.01,NNE,22,6.8,-999.0,68,-99.99,,,0.00,Acu-Link.com,2013-01-14 10:13:00,
2013-01-14 04:28:00,47.8,38.1,30.01,WNW,292,9.9,-999.0,69,-99.99,,,0.00,Acu-Link.com,2013-01-14 10:28:00,
2013-01-14 04:44:00,47.7,38.0,30.00,NNE,22,5.3,-999.0,69,-99.99,,,0.00,Acu-Link.com,2013-01-14 10:44:00,
2013-01-14 04:59:00,47.3,37.7,30.01,NE,45,4.2,-999.0,69,-99.99,,,0.00,Acu-Link.com,2013-01-14 10:59:00,
2013-01-14 05:14:00,46.6,37.7,30.01,West,270,6.3,-999.0,71,-99.99,,,0.00,Acu-Link.com,2013-01-14 11:14:00,
2013-01-14 05:29:00,46.0,37.8,30.02,NW,315,5.3,-999.0,73,-99.99,,,0.00,Acu-Link.com,2013-01-14 11:29:00,
2013-01-14 05:44:00,45.9,38.1,30.02,NNW,337,5.3,-999.0,74,-99.99,,,0.00,Acu-Link.com,2013-01-14 11:44:00,
2013-01-14 05:59:00,45.5,38.0,30.02,NNW,337,7.3,-999.0,75,-99.99,,,0.00,Acu-Link.com,2013-01-14 11:59:00,
2013-01-14 06:14:00,45.1,38.0,30.02,NW,315,7.3,-999.0,76,-99.99,,,0.00,Acu-Link.com,2013-01-14 12:14:00,
2013-01-14 06:29:00,45.0,37.9,30.03,WNW,292,5.3,-999.0,76,-99.99,,,0.00,Acu-Link.com,2013-01-14 12:29:00,
2013-01-14 06:44:00,44.4,37.0,30.03,West,270,6.3,-999.0,75,-99.99,,,0.00,Acu-Link.com,2013-01-14 12:44:00,
2013-01-14 07:00:00,44.4,37.3,30.03,NW,315,6.8,-999.0,76,-99.99,,,0.00,Acu-Link.com,2013-01-14 13:00:00,
2013-01-14 07:15:00,43.9,36.8,30.03,NNW,337,5.3,-999.0,76,-99.99,,,0.00,Acu-Link.com,2013-01-14 13:15:00,
2013-01-14 07:30:00,43.7,37.0,30.05,NNE,22,8.3,-999.0,77,-99.99,,,0.00,Acu-Link.com,2013-01-14 13:30:00,
2013-01-14 07:45:00,43.5,36.8,30.04,West,270,4.7,-999.0,77,-99.99,,,0.00,Acu-Link.com,2013-01-14 13:45:00,
2013-01-14 08:00:00,43.5,36.8,30.06,North,0,4.7,-999.0,77,-99.99,,,0.00,Acu-Link.com,2013-01-14 14:00:00,
2013-01-14 08:15:00,43.5,36.4,30.07,NE,45,5.3,-999.0,76,-99.99,,,0.00,Acu-Link.com,2013-01-14 14:15:00,
2013-01-14 08:30:00,43.3,36.3,30.07,NW,315,6.8,-999.0,76,-99.99,,,0.00,Acu-Link.com,2013-01-14 14:30:00,
2013-01-14 08:45:00,43.3,36.3,30.08,WNW,292,3.7,-999.0,76,-99.99,,,0.00,Acu-Link.com,2013-01-14 14:45:00,
2013-01-14 09:00:00,43.3,36.3,30.07,NNW,337,4.7,-999.0,76,-99.99,,,0.00,Acu-Link.com,2013-01-14 15:00:00,
2013-01-14 09:16:00,43.0,36.3,30.08,WSW,247,5.8,-999.0,77,-99.99,,,0.00,Acu-Link.com,2013-01-14 15:16:00,
2013-01-14 09:31:00,43.0,36.6,30.09,North,0,8.3,-999.0,78,-99.99,,,0.00,Acu-Link.com,2013-01-14 15:31:00,
2013-01-14 09:46:00,43.0,36.9,30.09,NW,315,7.8,-999.0,79,-99.99,,,0.00,Acu-Link.com,2013-01-14 15:46:00,
2013-01-14 10:01:00,42.8,37.4,30.10,NW,315,3.2,-999.0,81,-99.99,,,0.00,Acu-Link.com,2013-01-14 16:01:00,
2013-01-14 10:16:00,43.0,37.9,30.09,NW,315,7.8,-999.0,82,-99.99,,,0.00,Acu-Link.com,2013-01-14 16:16:00,
2013-01-14 10:31:00,43.5,38.4,30.09,NNE,22,6.3,-999.0,82,-99.99,,,0.00,Acu-Link.com,2013-01-14 16:31:00,
2013-01-14 10:46:00,43.7,38.6,30.08,SE,135,5.3,-999.0,82,-99.99,,,0.00,Acu-Link.com,2013-01-14 16:46:00,
2013-01-14 11:01:00,44.1,39.0,30.08,NNE,22,3.7,-999.0,82,-99.99,,,0.00,Acu-Link.com,2013-01-14 17:01:00,
2013-01-14 11:16:00,44.2,39.1,30.07,NNW,337,3.7,-999.0,82,-99.99,,,0.00,Acu-Link.com,2013-01-14 17:16:00,
2013-01-14 11:32:00,44.2,39.1,30.06,North,0,6.8,-999.0,82,-99.99,,,0.00,Acu-Link.com,2013-01-14 17:32:00,
2013-01-14 11:47:00,44.2,39.4,30.06,WNW,292,5.8,-999.0,83,-99.99,,,0.00,Acu-Link.com,2013-01-14 17:47:00,
2013-01-14 12:02:00,43.7,39.5,30.05,West,270,7.3,-999.0,85,-99.99,,,0.00,Acu-Link.com,2013-01-14 18:02:00,
2013-01-14 12:17:00,43.2,40.5,30.05,NNE,22,7.8,-999.0,90,-99.99,,,0.00,Acu-Link.com,2013-01-14 18:17:00,
2013-01-14 12:32:00,42.8,40.9,30.04,WNW,292,4.2,-999.0,93,-99.99,,,0.00,Acu-Link.com,2013-01-14 18:32:00,
2013-01-14 12:47:00,42.6,40.7,30.03,NNW,337,5.8,-999.0,93,-99.99,,,0.00,Acu-Link.com,2013-01-14 18:47:00,
2013-01-14 13:02:00,42.8,41.2,30.02,WNW,292,3.2,-999.0,94,-99.99,,,0.00,Acu-Link.com,2013-01-14 19:02:00,
2013-01-14 13:17:00,43.3,41.4,30.02,NNE,22,1.7,-999.0,93,-99.99,,,0.00,Acu-Link.com,2013-01-14 19:17:00,
2013-01-14 13:32:00,43.2,41.0,30.01,NE,45,4.2,-999.0,92,-99.99,,,0.00,Acu-Link.com,2013-01-14 19:32:00,
2013-01-14 13:48:00,43.9,41.7,30.00,NNE,22,3.2,-999.0,92,-99.99,,,0.00,Acu-Link.com,2013-01-14 19:48:00,
2013-01-14 14:03:00,43.9,41.2,30.00,NW,315,3.7,-999.0,90,-99.99,,,0.00,Acu-Link.com,2013-01-14 20:03:00,
2013-01-14 14:18:00,44.4,41.1,30.00,WNW,292,3.7,-999.0,88,-99.99,,,0.00,Acu-Link.com,2013-01-14 20:18:00,
2013-01-14 14:33:00,44.8,41.2,29.99,West,270,3.2,-999.0,87,-99.99,,,0.00,Acu-Link.com,2013-01-14 20:33:00,
2013-01-14 14:48:00,45.0,41.4,30.00,West,270,4.7,-999.0,87,-99.99,,,0.00,Acu-Link.com,2013-01-14 20:48:00,
2013-01-14 15:03:00,45.3,41.7,29.99,NNE,22,4.7,-999.0,87,-99.99,,,0.00,Acu-Link.com,2013-01-14 21:03:00,
2013-01-14 15:18:00,45.3,41.4,30.00,West,270,5.3,-999.0,86,-99.99,,,0.00,Acu-Link.com,2013-01-14 21:18:00,
2013-01-14 15:33:00,46.0,41.7,29.99,NNE,22,2.2,-999.0,85,-99.99,,,0.00,Acu-Link.com,2013-01-14 21:33:00,
2013-01-14 15:48:00,46.0,41.4,30.00,WNW,292,3.7,-999.0,84,-99.99,,,0.00,Acu-Link.com,2013-01-14 21:48:00,
2013-01-14 16:04:00,45.7,41.1,30.00,WNW,292,4.2,-999.0,84,-99.99,,,0.00,Acu-Link.com,2013-01-14 22:04:00,
2013-01-14 16:19:00,45.9,41.3,30.01,NNW,337,2.7,-999.0,84,-99.99,,,0.00,Acu-Link.com,2013-01-14 22:19:00,
2013-01-14 16:34:00,46.2,41.6,30.01,NNE,22,1.7,-999.0,84,-99.99,,,0.00,Acu-Link.com,2013-01-14 22:34:00,
2013-01-14 16:49:00,46.2,41.3,30.01,WNW,292,3.2,-999.0,83,-99.99,,,0.00,Acu-Link.com,2013-01-14 22:49:00,
2013-01-14 17:04:00,46.2,41.3,30.02,NNE,22,3.2,-999.0,83,-99.99,,,0.00,Acu-Link.com,2013-01-14 23:04:00,
2013-01-14 17:19:00,46.0,41.1,30.02,NW,315,6.3,-999.0,83,-99.99,,,0.00,Acu-Link.com,2013-01-14 23:19:00,
2013-01-14 17:34:00,46.0,41.1,30.01,NNW,337,2.7,-999.0,83,-99.99,,,0.00,Acu-Link.com,2013-01-14 23:34:00,
2013-01-14 17:49:00,46.0,41.1,30.02,NNW,337,4.7,-999.0,83,-99.99,,,0.00,Acu-Link.com,2013-01-14 23:49:00,
2013-01-14 18:04:00,46.2,41.3,30.01,WNW,292,2.7,-999.0,83,-99.99,,,0.00,Acu-Link.com,2013-01-15 00:04:00,
2013-01-14 18:20:00,46.4,41.8,30.02,NNE,22,2.2,-999.0,84,-99.99,,,0.00,Acu-Link.com,2013-01-15 00:20:00,
2013-01-14 18:35:00,46.4,41.8,30.02,WNW,292,3.2,-999.0,84,-99.99,,,0.00,Acu-Link.com,2013-01-15 00:35:00,
2013-01-14 18:50:00,46.6,42.0,30.02,NW,315,3.7,-999.0,84,-99.99,,,0.00,Acu-Link.com,2013-01-15 00:50:00,
2013-01-14 19:05:00,46.6,41.7,30.01,NW,315,2.7,-999.0,83,-99.99,,,0.00,Acu-Link.com,2013-01-15 01:05:00,
2013-01-14 19:20:00,46.8,41.9,30.02,North,0,3.7,-999.0,83,-99.99,,,0.00,Acu-Link.com,2013-01-15 01:20:00,
2013-01-14 19:35:00,46.9,42.3,30.01,WNW,292,3.2,-999.0,84,-99.99,,,0.00,Acu-Link.com,2013-01-15 01:35:00,
2013-01-14 19:50:00,46.8,42.8,30.01,NNE,22,2.2,-999.0,86,-99.99,,,0.00,Acu-Link.com,2013-01-15 01:50:00,
2013-01-14 20:05:00,46.6,42.9,30.01,West,270,2.7,-999.0,87,-99.99,,,0.00,Acu-Link.com,2013-01-15 02:05:00,
2013-01-14 20:20:00,46.6,43.2,30.02,North,0,3.2,-999.0,88,-99.99,,,0.00,Acu-Link.com,2013-01-15 02:20:00,
2013-01-14 20:36:00,46.4,43.6,30.01,WNW,292,4.2,-999.0,90,-99.99,,,0.00,Acu-Link.com,2013-01-15 02:36:00,
2013-01-14 20:51:00,46.0,44.1,30.01,NE,45,3.2,-999.0,93,-99.99,,,0.00,Acu-Link.com,2013-01-15 02:51:00,
2013-01-14 21:06:00,45.7,44.1,30.01,WNW,292,2.2,-999.0,94,-99.99,,,0.00,Acu-Link.com,2013-01-15 03:06:00,
2013-01-14 21:21:00,45.3,44.0,30.01,NNW,337,4.2,-999.0,95,-99.99,,,0.00,Acu-Link.com,2013-01-15 03:21:00,
2013-01-14 21:36:00,45.1,44.0,30.00,NNW,337,4.7,-999.0,96,-99.99,,,0.00,Acu-Link.com,2013-01-15 03:36:00,
2013-01-14 21:51:00,45.1,44.3,29.99,WNW,292,1.7,-999.0,97,-99.99,,,0.00,Acu-Link.com,2013-01-15 03:51:00,
2013-01-14 22:06:00,45.0,44.2,29.99,NW,315,2.2,-999.0,97,-99.99,,,0.00,Acu-Link.com,2013-01-15 04:06:00,
2013-01-14 22:21:00,45.0,44.5,29.99,North,0,2.7,-999.0,98,-99.99,,,0.00,Acu-Link.com,2013-01-15 04:21:00,
2013-01-14 22:37:00,45.1,44.6,30.01,NE,45,3.7,-999.0,98,-99.99,,,0.00,Acu-Link.com,2013-01-15 04:37:00,
2013-01-14 22:52:00,45.1,44.6,30.01,NW,315,1.7,-999.0,98,-99.99,,,0.00,Acu-Link.com,2013-01-15 04:52:00,
2013-01-14 23:07:00,45.1,44.8,30.00,North,0,4.2,-999.0,99,-99.99,,,0.00,Acu-Link.com,2013-01-15 05:07:00,
2013-01-14 23:22:00,45.1,44.8,29.98,NNE,22,2.2,-999.0,99,-99.99,,,0.00,Acu-Link.com,2013-01-15 05:22:00,
2013-01-14 23:37:00,45.1,44.8,29.99,NNW,337,2.2,-999.0,99,-99.99,,,0.00,Acu-Link.com,2013-01-15 05:37:00,
2013-01-14 23:52:00,45.1,44.8,29.98,NNE,22,2.2,-999.0,99,-99.99,,,0.00,Acu-Link.com,2013-01-15 05:52:00,